User: anonymous
Location: Utrecht
(52.0830°N, 5.1330°E)
Time: 12:06:32
(UTC+02:00)
Language:

Cosmos 1092 Rocket - Orbit

View from above orbital plane
View from above orbital plane
View from above satellite
View from above satellite

Ground track
Ground track

The orbit data is extracted from the following two-line orbital elements,

1 11327U 79030B   14108.50205610  .00000097  00000-0  82671-4 0  7437
2 11327 082.9496 073.9518 0028076 172.1828 327.2736 13.76929353760099
Epoch (UTC): 18 April 2014 12:02:57
Eccentricity: 0.0028076
inclination: 82.9496°
perigee height: 954 km
apogee height: 995 km
right ascension of ascending node: 73.9518°
argument of perigee: 172.1828°
revolutions per day: 13.76929353
mean anomaly at epoch: 327.2736°
orbit number at epoch: 76009

The dashed part of the orbit path shows where the satellite is in the earth's shadow,  

DLR